[[{"header":{"parameterUnit":"m.s-1","parameterCategory":1,"la1":30.2991,"la2":30.254,"lo1":-89.0895,"lo2":-89.0444,"dy":0.0017,"dx":0.0017,"nx":28,"ny":28,"refTime":"2025-08-25T03:00:00:Z","depth":0,"parameterNumber":2,"parameterNumberName":"U-component_of_WINDS"},"data":[0,0,0,0,0,0,0,0,0,0,0,0,0,0,0,0,0,0,0,0,0,0,0,0,0,0,0,0,0,0,0,0,0,0,0,0,0,0,0,0,0,0,0,0,0,0,0,0,0,0,0,0,0,0,0,0,0,0,-1.377,-1.377,0,-1.3841,-1.3841,-1.3842,-1.3789,-1.3786,-1.3784,-1.3782,-1.3857,-1.3861,-1.3865,0,0,0,0,0,0,0,0,0,0,0,0,0,-1.359,-1.3593,-1.377,-1.3771,-1.3771,-1.384,-1.3841,-1.3842,-1.3789,-1.3786,-1.3783,-1.3781,-1.3856,-1.386,-1.3865,0,0,0,0,0,0,0,0,0,0,0,0,0,-1.3665,-1.3595,-1.3769,-1.3753,-1.3752,-1.384,-1.3841,-1.3843,-1.379,-1.3786,-1.3783,-1.3779,-1.3854,-1.386,-1.3866,-1.3975,0,0,-1.3885,-1.3888,0,0,0,0,0,0,0,0,-1.3661,-1.3672,-1.3755,-1.3754,-1.3754,-1.3802,-1.3805,-1.3887,-1.3791,-1.3776,-1.3782,-1.3778,-1.3842,-1.3849,-1.387,-1.3978,-1.3982,-1.3886,-1.389,-1.3892,-1.3894,0,0,0,0,0,0,0,-1.3656,-1.3668,-1.3798,-1.3756,-1.3755,-1.3743,-1.375,-1.3821,-1.3828,-1.3777,-1.3773,-1.3782,-1.3841,-1.3864,-1.3871,-1.3983,-1.3886,-1.3891,-1.3895,-1.3898,-1.4185,-1.4188,0,0,0,0,0,0,-1.3652,-1.3664,-1.3795,-1.38,-1.3698,-1.3749,-1.3756,-1.379,-1.3827,-1.3829,-1.3785,-1.3779,-1.3855,-1.3864,-1.3874,-1.4004,-1.3892,-1.3898,-1.3902,-1.4181,-1.4186,-1.419,0,0,0,0,0,0,-1.3648,-1.3664,-1.3793,-1.3731,-1.3747,-1.3756,-1.3794,-1.3793,-1.3816,-1.3833,-1.3834,-1.3807,-1.3853,-1.3865,-1.395,-1.4006,-1.3901,-1.3907,-1.4176,-1.4182,-1.4188,-1.4266,0,0,0,0,0,0,-1.3643,-1.3663,-1.3704,-1.3732,-1.375,-1.3868,-1.3797,-1.3797,-1.3827,-1.382,-1.3854,-1.3856,-1.3851,-1.3941,-1.3956,-1.4013,-1.3912,-1.4171,-1.4179,-1.4186,-1.4259,-1.4274,-1.4287,0,0,0,0,0,-1.3637,-1.3724,-1.3707,-1.3723,-1.3802,-1.3871,-1.3881,-1.3873,-1.3832,-1.3874,-1.3884,-1.3855,-1.3997,-1.395,-1.3967,-1.4026,-1.4168,-1.4177,-1.4185,-1.4253,-1.4271,-1.4287,0,0,0,0,0,0,-1.3703,-1.3727,-1.3708,-1.3807,-1.3837,-1.3862,-1.3915,-1.3892,-1.3936,-1.3928,-1.3915,-1.3923,-1.4013,-1.4028,-1.3975,-1.4134,-1.4076,-1.4089,-1.4122,-1.4139,-1.4153,-1.4149,-1.3917,0,0,0,0,0,-1.3729,-1.3783,-1.3801,-1.3886,-1.3902,-1.3906,-1.3936,-1.3926,-1.3957,-1.397,-1.3987,-1.4019,-1.4071,-1.4105,-1.4154,-1.426,-1.4267,-1.4309,-1.4323,-1.4334,-1.4346,-1.4404,-1.4424,-1.4218,-1.4218,-1.4218,0,0,-1.3783,-1.3803,-1.3838,-1.39,-1.3922,-1.3979,-1.3917,-1.398,-1.4022,-1.398,-1.4062,-1.4075,-1.411,-1.4206,-1.425,-1.4221,-1.4404,-1.4346,-1.4355,-1.436,-1.4415,-1.4435,-1.4452,-1.4224,-1.4223,-1.4222,0,0,-1.3912,-1.3932,-1.4005,-1.4029,-1.4063,-1.4064,-1.4082,-1.411,-1.4117,-1.4198,-1.4168,-1.4218,-1.4308,-1.4334,-1.4359,-1.4497,-1.4472,-1.4513,-1.4588,-1.4645,-1.4661,-1.4675,-1.4726,-1.4744,-1.4524,-1.4524,-1.4524,0,-1.3976,-1.406,-1.4046,-1.4111,-1.414,-1.4103,-1.4178,-1.4201,-1.425,-1.4271,-1.4238,-1.4349,-1.437,-1.4473,-1.4506,-1.4527,-1.4548,-1.451,-1.4659,-1.4674,-1.4687,-1.4735,-1.4754,-1.4529,-1.4528,-1.4528,-1.4527,0,-1.4137,-1.4196,-1.4251,-1.4299,-1.4333,-1.4403,-1.44,-1.4437,-1.4424,-1.4429,-1.4513,-1.4536,-1.4589,-1.4612,-1.46,-1.4713,-1.4695,-1.4661,-1.4603,-1.4712,-1.4757,-1.4775,-1.4536,-1.4534,-1.4532,-1.4531,0,0,-1.4312,-1.435,-1.4371,-1.4392,-1.4426,-1.4472,-1.454,-1.4591,-1.4623,-1.4657,-1.4715,-1.4791,-1.4759,-1.4788,-1.4778,-1.4828,-1.4937,-1.4788,-1.4788,-1.4817,-1.5065,-1.5092,-1.5114,-1.492,-1.4923,-1.4926,-1.5063,0,-1.4444,-1.4562,-1.4552,-1.4664,-1.4719,-1.4683,-1.4743,-1.4771,-1.4777,-1.4824,-1.4831,-1.4886,-1.4839,-1.4857,-1.4904,-1.4914,-1.4987,-1.4903,-1.4975,-1.4978,-1.497,-1.5137,-1.5166,-1.5294,-1.508,-1.5083,-1.5085,0,-1.4614,-1.4654,-1.4772,-1.4798,-1.4821,-1.4874,-1.492,-1.4966,-1.4997,-1.4998,-1.5029,-1.5011,-1.508,-1.5018,-1.5114,-1.5058,-1.5086,-1.5095,-1.51,-1.5108,-1.504,-1.5153,-1.5335,-1.5355,-1.5113,-1.5111,-1.5109,0,-1.4733,-1.4816,-1.4897,-1.4916,-1.4948,-1.4987,-1.5002,-1.5029,-1.5061,-1.51,-1.5121,-1.5168,-1.5195,-1.5233,-1.5228,-1.5183,-1.5326,-1.5264,-1.5331,-1.5331,-1.5365,-1.5363,-1.5556,-1.5379,-1.5378,-1.5378,-1.5378,0,-1.4883,-1.4957,-1.4951,-1.5001,-1.5083,-1.507,-1.5151,-1.5162,-1.5186,-1.5239,-1.521,-1.526,-1.525,-1.53,-1.5296,-1.5377,-1.5389,-1.5392,-1.5391,-1.5397,-1.5397,-1.5417,-1.5409,-1.5383,-1.5382,-1.5381,-1.538,0,-1.5031,-1.5029,-1.5116,-1.5138,-1.5146,-1.5206,-1.5225,-1.5273,-1.5276,-1.5343,-1.5358,-1.5363,-1.542,-1.5418,-1.5483,-1.5481,-1.5581,-1.5568,-1.5571,-1.5569,-1.5636,-1.5631,-1.5852,-1.5881,-1.5682,-1.5684,-1.5685,0,-1.5128,-1.5184,-1.5212,-1.5245,-1.5263,-1.5316,-1.5347,-1.5336,-1.537,-1.5409,-1.5452,-1.5506,-1.555,-1.5643,-1.5653,-1.5702,-1.5692,-1.5766,-1.5699,-1.5703,-1.5696,-1.5694,-1.57,-1.578,-1.5782,-1.5784,-1.5785,0,-1.5302,-1.5298,-1.5344,-1.539,-1.5428,-1.5464,-1.5497,-1.5526,-1.5518,-1.5557,-1.5615,-1.5648,-1.5714,-1.5769,-1.5816,-1.5832,-1.5809,-1.5805,-1.5824,-1.5832,-1.5832,-1.5835,-1.5609,-1.5801,-1.58,-1.5799,-1.5798,-1.5797,-1.5428,-1.5477,-1.5505,-1.5557,-1.558,-1.5612,-1.5658,-1.5666,-1.5714,-1.5766,-1.5756,-1.5821,-1.585,-1.5911,-1.5932,-1.5983,-1.5957,-1.5983,-1.599,-1.5997,-1.6006,-1.5821,-1.5991,-1.599,-1.599,-1.599,-1.5989,0,-1.5603,-1.5618,-1.5666,-1.5713,-1.5755,-1.5726,-1.5761,-1.5798,-1.5855,-1.5884,-1.5926,-1.5993,-1.6045,-1.6059,-1.611,-1.6148,-1.6139,-1.6162,-1.6161,-1.6165,-1.6025,-1.6005,-1.6169,-1.6169,-1.6169,-1.6169,-1.6169,-1.6169,-1.5698,-1.5779,-1.5779,-1.5871,-1.5886,-1.5949,-1.5971,-1.6,-1.6023,-1.6098,-1.6142,-1.615,-1.6173,-1.6225,-1.6272,-1.6274,-1.6295,-1.6324,-1.6323,-1.6193,-1.6175,-1.6158,-1.6139,-1.6328,-1.6328,-1.6458,-1.646,-1.6461]},{"header":{"parameterUnit":"m.s-1","parameterCategory":1,"la1":30.2991,"la2":30.254,"lo1":-89.0895,"lo2":-89.0444,"dy":0.0017,"dx":0.0017,"nx":28,"ny":28,"refTime":"2025-08-25T03:00:00:Z","depth":0,"parameterNumber":3,"parameterNumberName":"V-component_of_WINDS"},"data":[0,0,0,0,0,0,0,0,0,0,0,0,0,0,0,0,0,0,0,0,0,0,0,0,0,0,0,0,0,0,0,0,0,0,0,0,0,0,0,0,0,0,0,0,0,0,0,0,0,0,0,0,0,0,0,0,0,0,-3.6903,-3.6903,0,-3.6957,-3.6958,-3.6958,-3.6908,-3.6906,-3.6904,-3.6902,-3.6954,-3.6957,-3.696,0,0,0,0,0,0,0,0,0,0,0,0,0,-3.675,-3.6753,-3.6902,-3.6903,-3.6904,-3.6957,-3.6958,-3.6958,-3.6908,-3.6906,-3.6903,-3.6901,-3.6953,-3.6957,-3.6961,0,0,0,0,0,0,0,0,0,0,0,0,0,-3.6812,-3.6754,-3.6902,-3.6885,-3.6884,-3.6957,-3.6958,-3.6959,-3.6909,-3.6906,-3.6903,-3.69,-3.6952,-3.6956,-3.6961,-3.7052,0,0,-3.6976,-3.6978,0,0,0,0,0,0,0,0,-3.6808,-3.6817,-3.6887,-3.6887,-3.6886,-3.6923,-3.6923,-3.699,-3.6909,-3.6899,-3.6902,-3.6898,-3.6946,-3.6951,-3.6968,-3.7055,-3.7057,-3.6977,-3.698,-3.6982,-3.6983,0,0,0,0,0,0,0,-3.6804,-3.6815,-3.6924,-3.6888,-3.6887,-3.6873,-3.6879,-3.6936,-3.6939,-3.69,-3.6896,-3.6904,-3.6945,-3.6963,-3.6969,-3.7058,-3.6977,-3.6981,-3.6984,-3.6986,-3.7221,-3.7224,0,0,0,0,0,0,-3.6802,-3.6812,-3.6922,-3.6926,-3.6839,-3.6879,-3.6885,-3.6914,-3.6938,-3.6939,-3.6906,-3.6901,-3.6956,-3.6963,-3.697,-3.7078,-3.6982,-3.6986,-3.6989,-3.7218,-3.7222,-3.7226,0,0,0,0,0,0,-3.6799,-3.6813,-3.692,-3.6868,-3.688,-3.6885,-3.6918,-3.6916,-3.6935,-3.6943,-3.6943,-3.6925,-3.6954,-3.6963,-3.7032,-3.7079,-3.6989,-3.6993,-3.7214,-3.7219,-3.7224,-3.7295,0,0,0,0,0,0,-3.6795,-3.6812,-3.6848,-3.6869,-3.6883,-3.6983,-3.692,-3.692,-3.6944,-3.6938,-3.696,-3.6961,-3.6952,-3.7025,-3.7037,-3.7084,-3.6997,-3.721,-3.7216,-3.7222,-3.7288,-3.7302,-3.7313,0,0,0,0,0,-3.679,-3.6865,-3.685,-3.6863,-3.6928,-3.6986,-3.6994,-3.6983,-3.6948,-3.6983,-3.6988,-3.696,-3.7072,-3.7033,-3.7046,-3.7095,-3.7207,-3.7215,-3.7222,-3.7283,-3.7299,-3.7313,0,0,0,0,0,0,-3.6848,-3.6867,-3.6851,-3.6935,-3.6959,-3.6977,-3.7021,-3.7001,-3.7035,-3.7027,-3.7012,-3.7017,-3.709,-3.7099,-3.7055,-3.7184,-3.7134,-3.7144,-3.7175,-3.7191,-3.7203,-3.7199,-3.7001,0,0,0,0,0,-3.687,-3.6917,-3.6931,-3.7004,-3.7017,-3.7017,-3.7042,-3.7032,-3.7055,-3.7065,-3.7075,-3.7098,-3.7138,-3.7165,-3.7202,-3.7289,-3.7293,-3.7329,-3.7342,-3.7352,-3.7361,-3.7406,-3.7423,-3.725,-3.725,-3.725,0,0,-3.6917,-3.6934,-3.6964,-3.7016,-3.7033,-3.708,-3.7026,-3.7078,-3.7112,-3.7072,-3.7139,-3.7147,-3.7171,-3.725,-3.7284,-3.7259,-3.7409,-3.7361,-3.7369,-3.7373,-3.7416,-3.7432,-3.7447,-3.7255,-3.7254,-3.7253,0,0,-3.7027,-3.7045,-3.7107,-3.7126,-3.7154,-3.7153,-3.7169,-3.719,-3.7194,-3.726,-3.7231,-3.7271,-3.7341,-3.7359,-3.7378,-3.7494,-3.747,-3.7507,-3.7571,-3.7616,-3.7629,-3.7641,-3.7682,-3.7697,-3.7516,-3.7516,-3.7516,0,-3.7082,-3.7153,-3.7142,-3.7196,-3.7219,-3.7187,-3.7249,-3.7267,-3.7305,-3.7321,-3.7293,-3.738,-3.7394,-3.7476,-3.7504,-3.752,-3.7536,-3.7504,-3.7628,-3.764,-3.7651,-3.769,-3.7706,-3.752,-3.752,-3.7519,-3.7519,0,-3.7218,-3.7268,-3.7315,-3.7354,-3.7382,-3.744,-3.7436,-3.7466,-3.7453,-3.7456,-3.7523,-3.7539,-3.7579,-3.7597,-3.7585,-3.7677,-3.7661,-3.7631,-3.758,-3.7672,-3.7708,-3.7723,-3.7526,-3.7525,-3.7524,-3.7522,0,0,-3.7366,-3.7398,-3.7416,-3.7433,-3.7461,-3.7498,-3.7554,-3.7594,-3.7619,-3.7646,-3.7692,-3.7752,-3.7724,-3.7745,-3.7735,-3.7774,-3.7864,-3.7739,-3.7739,-3.7761,-3.7966,-3.7988,-3.8006,-3.7848,-3.7851,-3.7853,-3.7964,0,-3.7477,-3.7576,-3.7567,-3.766,-3.7705,-3.7674,-3.7723,-3.7744,-3.7748,-3.7785,-3.7788,-3.7831,-3.7791,-3.7804,-3.7841,-3.7846,-3.7905,-3.7837,-3.789,-3.7892,-3.7884,-3.8025,-3.8049,-3.8152,-3.7978,-3.798,-3.7982,0,-3.7619,-3.7653,-3.7751,-3.7771,-3.779,-3.7834,-3.7869,-3.7906,-3.7929,-3.7929,-3.7953,-3.7935,-3.799,-3.7938,-3.8012,-3.7966,-3.7987,-3.7992,-3.7996,-3.8,-3.7942,-3.8032,-3.8185,-3.82,-3.8004,-3.8002,-3.8001,0,-3.7717,-3.7786,-3.7853,-3.7869,-3.7895,-3.7926,-3.7938,-3.7958,-3.7983,-3.8014,-3.8029,-3.8065,-3.8085,-3.8113,-3.8105,-3.8068,-3.8181,-3.8129,-3.8181,-3.8182,-3.8206,-3.8205,-3.8364,-3.8221,-3.822,-3.822,-3.822,0,-3.7841,-3.7902,-3.7897,-3.7939,-3.8006,-3.7994,-3.806,-3.8068,-3.8087,-3.8128,-3.8103,-3.8142,-3.813,-3.8167,-3.8162,-3.8224,-3.8233,-3.8233,-3.8231,-3.8235,-3.8235,-3.8248,-3.8241,-3.8224,-3.8223,-3.8222,-3.8222,0,-3.7961,-3.7961,-3.8032,-3.8051,-3.8057,-3.8106,-3.8121,-3.8159,-3.816,-3.8213,-3.8224,-3.8226,-3.827,-3.8265,-3.8313,-3.8309,-3.8386,-3.8375,-3.8379,-3.8376,-3.8429,-3.8424,-3.8602,-3.8624,-3.8466,-3.8468,-3.8469,0,-3.804,-3.8087,-3.8111,-3.8137,-3.8152,-3.8195,-3.822,-3.821,-3.8237,-3.8267,-3.8301,-3.8342,-3.8375,-3.8445,-3.845,-3.8486,-3.8476,-3.8536,-3.8481,-3.8484,-3.8476,-3.8473,-3.8478,-3.8546,-3.8548,-3.855,-3.8551,0,-3.8181,-3.8178,-3.8216,-3.8254,-3.8285,-3.8314,-3.8341,-3.8363,-3.8356,-3.8387,-3.8432,-3.8457,-3.8507,-3.8547,-3.8582,-3.8592,-3.857,-3.8568,-3.8582,-3.8587,-3.8587,-3.8587,-3.8407,-3.8564,-3.8563,-3.8562,-3.8561,-3.856,-3.8283,-3.8322,-3.8345,-3.8388,-3.8407,-3.8432,-3.8469,-3.8475,-3.8513,-3.8553,-3.8545,-3.8595,-3.8616,-3.866,-3.8674,-3.8712,-3.869,-3.871,-3.8715,-3.8721,-3.8727,-3.8581,-3.8718,-3.8718,-3.8717,-3.8717,-3.8717,0,-3.8421,-3.8435,-3.8474,-3.8513,-3.8546,-3.8523,-3.8551,-3.858,-3.8625,-3.8647,-3.868,-3.8731,-3.877,-3.8778,-3.8815,-3.8844,-3.8835,-3.8854,-3.8852,-3.8854,-3.8744,-3.8728,-3.8861,-3.8861,-3.8861,-3.8861,-3.8861,-3.8861,-3.8497,-3.8563,-3.8563,-3.8637,-3.865,-3.87,-3.8718,-3.874,-3.8758,-3.8816,-3.8849,-3.8854,-3.887,-3.8908,-3.8943,-3.8944,-3.8959,-3.8982,-3.8979,-3.8876,-3.8862,-3.8848,-3.8833,-3.8986,-3.8986,-3.9086,-3.9087,-3.9088]}]]